Location: Unspecified
(41.5516°N, 88.1098°W)
Time: 04:56:10
(UTC-05:00)

Okean 3 - Visible Passes

Search period start: 26 June 2016 00:00
Search period end: 06 July 2016 00:00
Orbit: 578 x 603 km, 82.5° (Epoch: 25 June)

Date Brightness Start Highest point End Pass type
(mag) Time Alt. Az. Time Alt. Az. Time Alt. Az.
26 Jun 5.1 00:59:42 10° NNE 01:03:20 26° ENE 01:03:49 25° E visible
26 Jun 4.8 02:36:58 10° NNW 02:40:22 25° W 02:40:22 25° W visible
27 Jun 4.5 01:07:54 10° N 01:11:56 38° ENE 01:12:06 38° E visible
27 Jun 5.4 02:46:03 10° NW 02:48:39 17° W 02:48:39 17° W visible
28 Jun 3.8 01:16:13 10° N 01:20:24 58° ENE 01:20:24 58° ENE visible
28 Jun 5.8 02:55:48 10° WNW 02:56:57 11° W 02:56:57 11° W visible
29 Jun 3.5 01:24:40 10° N 01:28:43 78° N 01:28:43 78° N visible
29 Jun 5.9 23:58:03 10° NE 23:59:49 12° ENE 00:00:29 12° ENE visible
30 Jun 3.9 01:33:14 10° NNW 01:37:03 55° WNW 01:37:03 55° WNW visible
01 Jul 5.5 00:05:32 10° NNE 00:08:30 18° ENE 00:08:50 18° ENE visible
01 Jul 4.5 01:41:55 10° NNW 01:45:23 36° WNW 01:45:23 36° WNW visible
02 Jul 5.0 00:13:30 10° NNE 00:17:09 26° ENE 00:17:11 26° ENE visible
02 Jul 5.1 01:50:46 10° NNW 01:53:44 25° WNW 01:53:44 25° WNW visible
03 Jul 4.5 00:21:42 10° N 00:25:33 38° ENE 00:25:33 38° ENE visible
03 Jul 5.6 01:59:51 10° NW 02:02:06 17° WNW 02:02:06 17° WNW visible
04 Jul 3.9 00:30:02 10° N 00:33:56 56° NE 00:33:56 56° NE visible
04 Jul 6.0 02:09:35 10° WNW 02:10:29 11° WNW 02:10:29 11° WNW visible
05 Jul 3.7 00:38:28 10° N 00:42:19 69° N 00:42:19 69° N visible
05 Jul 5.8 23:11:51 10° NE 23:13:37 12° ENE 23:14:09 12° ENE visible
